Regional Weather Roundup
Issued by NWS

Home | Current Version | Previous Version | Graphics & Text | Print | Product List | Glossary On
Versions: 1 2 3 4 5 6 7 8 9 10 11 12 13 14 15 16 17 18 19 20 21 22 23 24 25 26 27 28 29 30 31 32 33 34 35 36 37 38 39 40 41 42 43 44 45 46 47 48 49 50
000
ASUS43 KLOT 231609
RWRIL

ILLINOIS REGIONAL WEATHER ROUNDUP
NATIONAL WEATHER SERVICE CHICAGO/ROMEOVILLE IL
1100 AM CDT SAT JUL 23 2016

NOTE: "FAIR" INDICATES FEW OR NO CLOUDS BELOW 12,000 FEET WITH NO
SIGNIFICANT WEATHER AND/OR OBSTRUCTIONS TO VISIBILITY.

* THESE STATIONS ARE NOT UNDER NWS QUALITY CONTROL. THEY ALSO MAY NOT
  REPORT WEATHER SUCH AS PRECIPITATION OR FOG.

ILZ001-002-007-009-015-016-024-231700-
NORTHWEST ILLINOIS

CITY           SKY/WX    TMP DP  RH WIND       PRES   REMARKS
MOLINE         MOSUNNY   88  79  74 SE8       29.96S HX 103
STERLING*      CLOUDY    84  79  85 SE5       29.99S HX  96
SAVANNA*       CLOUDY    83  79  88 SE3       29.98S HX  93
$$

ILZ003-004-008-010-011-017-018-231700-
NORTH CENTRAL ILLINOIS

CITY           SKY/WX    TMP DP  RH WIND       PRES   REMARKS
ROCKFORD       CLOUDY    85  77  77 S3        30.00S HX  95
FREEPORT*      CLOUDY    83  77  82 SE3       30.01S HX  91
ROCHELLE*      CLOUDY    82  79  90 S5        30.01R HX  92
DE KALB*       CLOUDY    85  77  78 S6        30.02R HX  95
$$

ILZ005-006-012>014-019>023-231700-
NORTHEAST ILLINOIS

CITY           SKY/WX    TMP DP  RH WIND       PRES   REMARKS
CHICAGO-OHARE  CLOUDY    87  74  64 CALM      29.99R HX  95
CHICAGO-MIDWAY PTSUNNY   89  74  60 VRB3      29.99R HX  98
AURORA         PTSUNNY   88  77  69 S7        30.00R HX 100
LANSING*       MOSUNNY   88  75  65 S6        30.00R HX  97
JOLIET*        MOSUNNY   87  77  72 CALM      30.00R HX  98
WAUKEGAN       CLOUDY    87  77  72 E6        29.98S HX  99
DUPAGE AIRPORT PTSUNNY   87  74  64 S7        30.00R HX  95
WHEELING       PTSUNNY   87  74  64 W3        30.00R HX  95
MORRIS*        PTSUNNY   85  78  80 CALM      29.99R HX  96
ROMEOVILLE*    CLOUDY    86  72  62 CALM      30.01R HX  92
NORTHERLY ISL    N/A     83  75  77 E2          N/A  HX  90
$$

LMZ740>746-231700-
SOUTHERN LAKE MICHIGAN

STATION/POSITION SKY/WX   TEMP    WIND        PRES    VSBY  WAVE
                          AIR SEA DIR/SP/G                  HT/PER
                          (F)     (DEG/KT/KT) (MB)    (MI)  (FT/S)
SOUTHERN BUOY              78 78   90/  2/  2 1015.1R         0
WILMETTE HARBOR            82 75  140/  2/  2   N/A           0
HARRISON CRIB              81     100/  5/  6   N/A
BURNHAM HARBOR             84     150/  1/  4   N/A
CALUMET HARBOR             81      50/  4/  5 1015.1R
BURNS HARBOR               81        CALM     1015.9S
MICHIGAN CITY              78     240/  6/  6   N/A
MICHIGAN CITY 6N           79 75  280/  2/  4   N/A           0
ST. JOSEPH                 76 76  260/  6/  6 1015.8R         0
$$

ILZ025>027-034>036-040-047-049-050-058-095>099-231700-
WEST-CENTRAL ILLINOIS

CITY           SKY/WX    TMP DP  RH WIND       PRES   REMARKS
QUINCY         SUNNY     88  76  67 VRB6      29.97F HX  99
GALESBURG*     SUNNY     85  77  76 SE6       29.99S HX  96
MACOMB*        SUNNY     86  77  75 S6        30.00S HX  97
JACKSONVILLE*  MOSUNNY   85  75  71 S3        29.99S HX  94
PITTSFIELD*    SUNNY     86  77  75 S6        30.00S HX  98
$$

ILZ028>032-037-038-041>044-048-051>054-059>061-231700-
CENTRAL ILLINOIS

CITY           SKY/WX    TMP DP  RH WIND       PRES   REMARKS
PONTIAC        SUNNY     87  77  73 SW5       30.02R HX  99
BLOOMINGTON    MOSUNNY   85  76  74 S8        30.03S HX  94
DECATUR        MOSUNNY   86  75  69 SE6       30.01F HX  95
PEORIA         MOSUNNY   85  78  80 S7        29.99F HX  96
LACON*         CLOUDY    86  75  71 S5        29.98S HX  95
LINCOLN*       MOSUNNY   87  79  76 SE6       30.00F HX 100
SPRINGFIELD    SUNNY     87  74  64 SE6       30.00F HX  95
TAYLORVILLE    SUNNY     84  76  78 NW3       30.01F HX  93
$$

ILZ033-039-045-046-055>057-062-063-231700-
EAST-CENTRAL ILLINOIS

CITY           SKY/WX    TMP DP  RH WIND       PRES   REMARKS
CHAMPAIGN      SUNNY     84  75  74 S7        30.02S HX  92
MATTOON        PTSUNNY   84  74  71 S3        30.02S HX  91
PARIS*         PTSUNNY   85  78  80 CALM      30.03S HX  97
$$

ILZ079-100>102-231700-
SOUTHWEST ILLINOIS

CITY           SKY/WX    TMP DP  RH WIND       PRES   REMARKS
ALTON          SUNNY     84  73  70 S7        30.01  HX  91
BELLEVILLE     SUNNY     87  79  76 CALM      29.99S HX 101
CAHOKIA*       SUNNY     88  74  63 SE8       29.99S HX  96
SPARTA*        MOSUNNY   85  76  74 CALM      30.01S HX  94
$$

ILZ064>066-069>071-074>076-080>082-084>086-088>090-092>094-231700-
SOUTH-CENTRAL ILLINOIS

CITY           SKY/WX    TMP DP  RH WIND       PRES   REMARKS
CARBONDALE     PTSUNNY   82  76  81 E6        30.00F HX  89
CAIRO*         SUNNY     84  77  79 SE6       29.99F HX  94
EFFINGHAM*     MOSUNNY   85  78  78 E3        30.03S HX  97
MARION         PTSUNNY   82  79  89 E7        30.01F HX  93
MT. VERNON     MOSUNNY   88  73  62 SW6       30.01S HX  96
CENTRALIA*     MOSUNNY   86  77  74 CALM      30.01R HX  96
SALEM*         CLOUDY    86  75  70 CALM      30.01S HX  94
METROPOLIS*    SUNNY     85  76  75 E3        30.00F HX  95
$$

ILZ067-068-072-073-078-083-087-091-231700-
SOUTHEAST ILLINOIS

CITY           SKY/WX    TMP DP  RH WIND       PRES   REMARKS
LAWRENCEVILLE  MOSUNNY   85  77  77 VRB3      30.02S HX  95
FLORA*         CLOUDY    85  77  77 CALM      30.02R HAZE    HX  96
FAIRFIELD*     PTSUNNY   84  77  80 CALM      30.00S HX  93
HARRISBURG*    MOSUNNY   84  78  84 CALM      30.00F HX  95
CARMI*         MOSUNNY   81  77  88 CALM      30.00F FOG     HX  88
$$

ABBREVIATIONS USED IN REMARKS
   TC - TEMPERATURE IN CELSIUS
  WCI - WIND CHILL INDEX
   HX - HEAT INDEX
  VSB - VISIBILITY
$$




USA.gov is the U.S. government's official web portal to all federal, state and local government web resources and services.